�������l�o���
Date,Time,MP-1(��Sv/h),MP-2(��Sv/h),MP-3(��Sv/h),MP-4(��Sv/h),MP-5(��Sv/h),MP-6(��Sv/h),MP-7(��Sv/h),MP-8(��Sv/h),����,����(m/s),���J
2020/11/24,00:00,0.683,0.990,0.620,1.227,0.876,0.386,0.682,0.640,���k��,5.4,��
2020/11/24,00:10,0.685,0.991,0.621,1.227,0.877,0.385,0.683,0.642,���k��,6.0,��
2020/11/24,00:20,0.684,0.990,0.621,1.226,0.877,0.386,0.684,0.640,���k��,6.7,��
2020/11/24,00:30,0.685,0.990,0.624,1.226,0.875,0.386,0.682,0.642,���k��,7.9,��
2020/11/24,00:40,0.686,0.991,0.620,1.227,0.877,0.386,0.684,0.640,���k��,8.2,��
2020/11/24,00:50,0.684,0.992,0.621,1.225,0.878,0.387,0.682,0.641,��,8.3,��
2020/11/24,01:00,0.683,0.991,0.620,1.224,0.876,0.387,0.684,0.642,��,6.4,��
2020/11/24,01:10,0.686,0.990,0.620,1.226,0.874,0.387,0.684,0.643,���k��,7.0,��
2020/11/24,01:20,0.683,0.990,0.621,1.225,0.877,0.386,0.682,0.641,���k��,6.2,��
2020/11/24,01:30,0.685,0.989,0.621,1.226,0.875,0.387,0.682,0.642,�k��,4.7,��
2020/11/24,01:40,0.686,0.991,0.621,1.225,0.875,0.387,0.682,0.643,�k��,5.4,��
2020/11/24,01:50,0.685,0.989,0.620,1.225,0.876,0.387,0.682,0.641,�k��,6.3,��
2020/11/24,02:00,0.684,0.989,0.618,1.225,0.877,0.387,0.682,0.641,�k��,8.8,��
2020/11/24,02:10,0.684,0.988,0.621,1.225,0.875,0.387,0.682,0.642,�k��,8.4,��
2020/11/24,02:20,0.684,0.990,0.622,1.227,0.876,0.386,0.681,0.641,���k��,6.9,��
2020/11/24,02:30,0.685,0.989,0.619,1.225,0.875,0.384,0.682,0.640,��,7.0,��
2020/11/24,02:40,0.683,0.990,0.621,1.228,0.875,0.386,0.682,0.642,��,6.4,��
2020/11/24,02:50,0.684,0.989,0.620,1.228,0.873,0.387,0.682,0.641,���k��,5.3,��
2020/11/24,03:00,0.685,0.989,0.618,1.225,0.875,0.386,0.682,0.640,��,5.7,��
2020/11/24,03:10,0.685,0.990,0.619,1.229,0.874,0.385,0.682,0.642,��,6.6,��
2020/11/24,03:20,0.684,0.989,0.618,1.226,0.875,0.386,0.683,0.643,���k��,9.2,��
2020/11/24,03:30,0.684,0.989,0.619,1.227,0.876,0.386,0.683,0.640,�k��,7.9,��
2020/11/24,03:40,0.684,0.988,0.622,1.226,0.876,0.387,0.683,0.642,�k��,5.1,��
2020/11/24,03:50,0.685,0.989,0.621,1.227,0.877,0.386,0.681,0.641,���k��,4.5,��
2020/11/24,04:00,0.683,0.987,0.621,1.226,0.877,0.386,0.682,0.642,���k��,5.3,��
2020/11/24,04:10,0.683,0.989,0.619,1.227,0.874,0.388,0.683,0.640,���k��,4.8,��
2020/11/24,04:20,0.684,0.988,0.621,1.227,0.877,0.386,0.682,0.641,���k��,4.0,��
2020/11/24,04:30,0.682,0.990,0.622,1.226,0.875,0.385,0.681,0.642,�k��,3.7,��
2020/11/24,04:40,0.684,0.989,0.621,1.226,0.873,0.386,0.681,0.642,�k��,5.2,��
2020/11/24,04:50,0.686,0.988,0.621,1.225,0.876,0.388,0.682,0.641,�k�k��,6.7,��
2020/11/24,05:00,0.683,0.988,0.620,1.227,0.875,0.385,0.682,0.641,�k�k��,6.5,��
2020/11/24,05:10,0.682,0.987,0.619,1.225,0.877,0.385,0.683,0.641,�k�k��,5.3,��
2020/11/24,05:20,0.683,0.988,0.619,1.225,0.876,0.385,0.682,0.640,�k��,5.8,��
2020/11/24,05:30,0.684,0.989,0.621,1.227,0.876,0.385,0.683,0.641,�k��,6.9,��
2020/11/24,05:40,0.683,0.988,0.621,1.224,0.875,0.386,0.682,0.641,�k��,8.0,��
2020/11/24,05:50,0.683,0.991,0.619,1.225,0.875,0.385,0.681,0.641,�k��,7.4,��
2020/11/24,06:00,0.682,0.989,0.621,1.226,0.874,0.386,0.681,0.640,�k��,6.1,��
2020/11/24,06:10,0.684,0.990,0.621,1.227,0.876,0.387,0.682,0.642,�k��,6.2,��
2020/11/24,06:20,0.682,0.989,0.620,1.227,0.877,0.384,0.681,0.641,�k��,5.4,��
2020/11/24,06:30,0.684,0.987,0.619,1.225,0.875,0.386,0.683,0.641,���k��,3.5,��
2020/11/24,06:40,0.683,0.988,0.620,1.224,0.875,0.387,0.681,0.639,�k��,5.2,��
2020/11/24,06:50,0.682,0.988,0.620,1.226,0.874,0.387,0.681,0.640,�k��,5.8,��
2020/11/24,07:00,0.682,0.989,0.621,1.227,0.874,0.385,0.682,0.639,�k��,6.1,��
2020/11/24,07:10,0.682,0.991,0.621,1.224,0.874,0.386,0.682,0.641,�k��,6.2,��
2020/11/24,07:20,0.684,0.990,0.620,1.227,0.875,0.385,0.681,0.639,�k��,4.9,��
2020/11/24,07:30,0.683,0.989,0.618,1.225,0.875,0.385,0.682,0.641,�k��,7.9,��
2020/11/24,07:40,0.682,0.987,0.620,1.226,0.874,0.384,0.682,0.641,�k��,8.7,��
2020/11/24,07:50,0.683,0.988,0.619,1.224,0.876,0.385,0.680,0.641,�k��,9.1,��
2020/11/24,08:00,0.684,0.989,0.619,1.228,0.875,0.384,0.681,0.640,���k��,6.6,��
2020/11/24,08:10,0.685,0.989,0.619,1.226,0.875,0.386,0.683,0.642,���k��,5.7,��
2020/11/24,08:20,0.684,0.986,0.619,1.226,0.876,0.386,0.681,0.640,���k��,7.0,��
2020/11/24,08:30,0.684,0.989,0.618,1.223,0.874,0.386,0.683,0.641,���k��,10.0,��
2020/11/24,08:40,0.684,0.988,0.618,1.226,0.875,0.386,0.683,0.642,�k��,7.0,��
2020/11/24,08:50,0.683,0.988,0.618,1.229,0.874,0.386,0.680,0.642,�k��,7.2,��
2020/11/24,09:00,0.683,0.989,0.620,1.227,0.872,0.386,0.682,0.640,�k�k��,7.5,��
2020/11/24,09:10,0.684,0.987,0.617,1.230,0.868,0.386,0.680,0.641,�k��,8.3,��
2020/11/24,09:20,0.684,0.985,0.618,1.227,0.857,0.386,0.680,0.640,�k��,7.2,��
2020/11/24,09:30,0.684,0.983,0.619,1.226,0.864,0.387,0.682,0.640,�k��,9.0,��
2020/11/24,09:40,0.682,0.986,0.619,1.228,0.855,0.386,0.680,0.640,�k��,7.0,��
2020/11/24,09:50,0.685,0.986,0.617,1.229,0.857,0.388,0.679,0.642,�k��,4.9,��
2020/11/24,10:00,0.685,0.985,0.616,1.226,0.862,0.388,0.680,0.642,�k��,6.7,��
2020/11/24,10:10,0.687,0.985,0.618,1.225,0.860,0.387,0.679,0.641,�k�k��,5.8,��
2020/11/24,10:20,0.684,0.987,0.617,1.227,0.863,0.387,0.682,0.642,�k��,7.1,��
2020/11/24,10:30,0.685,0.986,0.618,1.227,0.860,0.388,0.680,0.644,�k��,6.4,��
2020/11/24,10:40,0.685,0.987,0.618,1.229,0.863,0.386,0.679,0.641,�k��,4.4,��
2020/11/24,10:50,0.683,0.985,0.618,1.229,0.863,0.386,0.681,0.642,�k�k��,4.7,��
2020/11/24,11:00,0.683,0.989,0.619,1.227,0.860,0.387,0.680,0.642,�k�k��,4.5,��
2020/11/24,11:10,0.685,0.986,0.620,1.227,0.869,0.386,0.680,0.642,�k�k��,5.8,��
2020/11/24,11:20,0.684,0.986,0.620,1.228,0.868,0.386,0.681,0.643,�k�k��,5.2,��
2020/11/24,11:30,0.684,0.988,0.619,1.228,0.868,0.385,0.681,0.643,�k,5.9,��
2020/11/24,11:40,0.684,0.991,0.620,1.225,0.868,0.385,0.680,0.642,�k�k��,5.0,��
2020/11/24,11:50,0.685,0.991,0.619,1.231,0.866,0.386,0.681,0.643,�k�k��,3.7,��
2020/11/24,12:00,0.683,0.990,0.619,1.229,0.869,0.386,0.681,0.643,�k�k��,4.0,��
2020/11/24,12:10,0.685,0.989,0.618,1.229,0.872,0.386,0.682,0.641,�k,2.9,��
2020/11/24,12:20,0.684,0.989,0.618,1.228,0.876,0.386,0.679,0.645,�k�k��,4.8,��
2020/11/24,12:30,0.685,0.990,0.619,1.228,0.874,0.386,0.680,0.641,�k�k��,3.7,��
2020/11/24,12:40,0.686,0.988,0.617,1.229,0.874,0.388,0.681,0.640,�k�k��,3.6,��
2020/11/24,12:50,0.685,0.986,0.615,1.230,0.875,0.388,0.682,0.639,�k,4.8,��
2020/11/24,13:00,0.685,0.989,0.617,1.230,0.876,0.386,0.683,0.639,�k,4.4,��
2020/11/24,13:10,0.686,0.985,0.617,1.227,0.874,0.387,0.681,0.639,�k��,4.4,��
2020/11/24,13:20,0.685,0.984,0.616,1.228,0.875,0.388,0.682,0.639,�k�k��,5.6,��
2020/11/24,13:30,0.685,0.990,0.615,1.227,0.875,0.387,0.682,0.640,�k�k��,7.2,��
2020/11/24,13:40,0.684,0.990,0.616,1.230,0.876,0.386,0.682,0.640,�k�k��,7.0,��
2020/11/24,13:50,0.684,0.982,0.619,1.228,0.874,0.386,0.682,0.639,�k��,6.8,��
2020/11/24,14:00,0.685,0.985,0.617,1.231,0.877,0.388,0.683,0.640,�k�k��,6.6,��
2020/11/24,14:10,0.685,0.986,0.620,1.226,0.877,0.387,0.682,0.641,�k�k��,7.2,��
2020/11/24,14:20,0.686,0.986,0.622,1.228,0.877,0.388,0.682,0.638,�k��,5.1,��
2020/11/24,14:30,0.684,0.985,0.620,1.228,0.877,0.386,0.681,0.638,�k�k��,6.0,��
2020/11/24,14:40,0.686,0.986,0.619,1.228,0.876,0.387,0.681,0.641,�k��,6.9,��
2020/11/24,14:50,0.684,0.988,0.620,1.227,0.880,0.386,0.681,0.641,�k��,5.8,��
2020/11/24,15:00,0.686,0.991,0.621,1.227,0.876,0.387,0.682,0.641,�k�k��,6.4,��
2020/11/24,15:10,0.685,0.990,0.621,1.226,0.876,0.387,0.681,0.640,�k,6.2,��
2020/11/24,15:20,0.686,0.993,0.621,1.228,0.876,0.386,0.681,0.641,�k�k��,7.3,��
2020/11/24,15:30,0.685,0.991,0.620,1.227,0.874,0.387,0.682,0.643,�k�k��,5.6,��
2020/11/24,15:40,0.684,0.992,0.622,1.227,0.875,0.385,0.681,0.641,�k�k��,6.2,��
2020/11/24,15:50,0.685,0.994,0.621,1.229,0.875,0.387,0.682,0.642,�k�k��,6.3,��
2020/11/24,16:00,0.684,0.993,0.619,1.229,0.873,0.386,0.682,0.644,�k�k��,5.0,��
2020/11/24,16:10,0.684,0.995,0.621,1.229,0.874,0.388,0.681,0.641,�k�k��,3.3,��
2020/11/24,16:20,0.683,0.994,0.620,1.229,0.874,0.386,0.681,0.642,�k��,2.6,��
2020/11/24,16:30,0.684,0.993,0.622,1.229,0.874,0.385,0.680,0.642,�k�k��,3.3,��
2020/11/24,16:40,0.684,0.993,0.620,1.229,0.876,0.388,0.682,0.642,�k��,5.1,��
2020/11/24,16:50,0.685,0.995,0.620,1.230,0.876,0.384,0.682,0.643,�k��,5.0,��
2020/11/24,17:00,0.685,0.994,0.621,1.230,0.877,0.386,0.681,0.643,�k��,4.6,��
2020/11/24,17:10,0.684,0.992,0.621,1.229,0.875,0.385,0.681,0.640,�k��,4.2,��
2020/11/24,17:20,0.685,0.995,0.619,1.226,0.878,0.384,0.681,0.643,�k��,3.7,��
2020/11/24,17:30,0.683,0.992,0.619,1.229,0.877,0.386,0.682,0.642,���k��,3.7,��
2020/11/24,17:40,0.685,0.995,0.619,1.229,0.878,0.387,0.684,0.641,�k��,3.2,��
2020/11/24,17:50,0.684,0.991,0.619,1.228,0.876,0.387,0.682,0.642,�k�k��,2.2,��
2020/11/24,18:00,0.685,0.992,0.621,1.230,0.876,0.387,0.683,0.643,�k��,1.7,��
2020/11/24,18:10,0.686,0.993,0.619,1.227,0.878,0.386,0.682,0.642,��,2.8,��
2020/11/24,18:20,0.685,0.992,0.618,1.228,0.877,0.385,0.682,0.641,��,2.3,��
2020/11/24,18:30,0.686,0.992,0.619,1.229,0.876,0.387,0.681,0.642,���쐼,1.9,��
2020/11/24,18:40,0.686,0.995,0.620,1.230,0.878,0.387,0.681,0.642,�쐼,1.2,��
2020/11/24,18:50,0.686,0.992,0.620,1.228,0.877,0.386,0.683,0.643,��,1.2,��
2020/11/24,19:00,0.687,0.994,0.620,1.226,0.877,0.387,0.683,0.641,��,0.9,��
2020/11/24,19:10,0.687,0.993,0.619,1.228,0.876,0.387,0.682,0.642,�쓌,0.9,��
2020/11/24,19:20,0.686,0.992,0.620,1.230,0.878,0.386,0.681,0.641,��,1.7,��
2020/11/24,19:30,0.685,0.994,0.620,1.229,0.877,0.387,0.680,0.643,��,0.9,��
2020/11/24,19:40,0.686,0.993,0.620,1.227,0.877,0.386,0.681,0.640,��,1.4,��
2020/11/24,19:50,0.687,0.993,0.620,1.226,0.879,0.387,0.680,0.641,��,1.2,��
2020/11/24,20:00,0.686,0.994,0.620,1.228,0.878,0.388,0.681,0.641,��,1.4,��
2020/11/24,20:10,0.685,0.992,0.619,1.228,0.876,0.386,0.683,0.642,���k��,2.0,��
2020/11/24,20:20,0.686,0.992,0.620,1.228,0.877,0.387,0.681,0.643,���쓌,1.4,��
2020/11/24,20:30,0.684,0.993,0.618,1.226,0.879,0.388,0.683,0.641,�쓌,1.4,��
2020/11/24,20:40,0.685,0.992,0.620,1.229,0.879,0.387,0.682,0.641,-,CALM,��
2020/11/24,20:50,0.685,0.994,0.620,1.227,0.878,0.386,0.681,0.642,��쐼,1.2,��
2020/11/24,21:00,0.687,0.992,0.619,1.228,0.877,0.386,0.681,0.641,�쐼,1.2,��
2020/11/24,21:10,0.685,0.991,0.621,1.228,0.877,0.387,0.681,0.641,�쐼,1.5,��
2020/11/24,21:20,0.683,0.992,0.620,1.229,0.879,0.386,0.681,0.641,���쐼,1.2,��
2020/11/24,21:30,0.686,0.993,0.620,1.229,0.877,0.388,0.680,0.642,-,CALM,��
2020/11/24,21:40,0.686,0.993,0.620,1.226,0.879,0.386,0.681,0.639,���쐼,0.6,��
2020/11/24,21:50,0.687,0.992,0.620,1.230,0.877,0.387,0.680,0.640,��쐼,0.9,��
2020/11/24,22:00,0.685,0.991,0.618,1.227,0.877,0.385,0.681,0.641,��쐼,0.9,��
2020/11/24,22:10,0.685,0.992,0.619,1.227,0.876,0.387,0.680,0.643,���k��,1.2,�L
2020/11/24,22:20,0.687,0.993,0.619,1.229,0.876,0.387,0.682,0.641,���쓌,1.1,��
2020/11/24,22:30,0.685,0.993,0.619,1.226,0.879,0.387,0.682,0.641,�쐼,1.5,��
2020/11/24,22:40,0.686,0.993,0.619,1.227,0.878,0.388,0.682,0.642,��,0.9,�L
2020/11/24,22:50,0.686,0.993,0.620,1.228,0.878,0.388,0.681,0.641,��,1.9,�L
2020/11/24,23:00,0.685,0.993,0.621,1.230,0.877,0.387,0.683,0.641,�k��,1.9,�L
2020/11/24,23:10,0.683,0.994,0.622,1.227,0.878,0.387,0.680,0.642,�k�k��,2.8,��
2020/11/24,23:20,0.685,0.994,0.620,1.228,0.877,0.388,0.681,0.641,�k�k��,2.3,�L
2020/11/24,23:30,0.687,0.993,0.620,1.230,0.876,0.387,0.682,0.641,�k�k��,2.3,��
2020/11/24,23:40,0.686,0.993,0.622,1.227,0.876,0.388,0.681,0.641,�k,2.8,�L
2020/11/24,23:50,0.686,0.992,0.620,1.230,0.876,0.386,0.682,0.643,�k,4.7,�L
